Dewpoint
66 66 68 70 71 70 71 70 70 69 69 68 67 67 67 67 67 67 68 68 68 68 68 67 66 66 66 66 64 64 64 63 63 62 62 62 62 62 64 63 62 62 61 62 61 62 62 62 63 63 65 65 65 65 64 64 64 64 64 64 64 65 66 66 67 67 67 67 67 68 67 67 67 67 67 67 66 66 66 64 64 60 61 63 64
66 67 69 70 71 71 70 70 69 69 68 68 67 66 66 67 67 66 67 67 66 66 65 64 64 65 65 65 64 63 63 62 61 62 63 63 63 63 61 60 61 60 60 61 61 62 66 65 65 65 64 63 65 65 63 63 63 63 63 64 65 65 66 66 66 66 66 66 67 67 67 67 67 67 67 66 65 65 65 63 63 60 60 63 62
67 67 69 70 71 71 71 70 70 69 69 68 67 67 66 66 66 66 66 66 66 65 64 64 64 66 65 62 63 62 62 62 61 61 61 61 61 60 62 63 63 63 62 62 62 61 65 65 65 65 67 66 66 64 63 62 62 62 64 64 64 65 65 65 66 67 66 66 66 66 67 67 66 66 66 65 65 65 65 63 62 61 61 63 63
66 67 68 70 71 71 71 70 70 70 69 68 67 67 67 67 67 67 66 65 65 65 64 64 65 63 62 61 61 62 61 61 61 61 61 61 62 62 64 62 59 60 62 61 62 65 65 64 64 63 64 64 64 64 63 62 61 62 63 64 64 65 65 65 65 66 66 66 66 66 63 64 65 66 66 66 66 66 67 64 64 64 64 63 62
66 67 69 69 70 71 71 70 70 69 69 68 67 67 67 66 67 68 68 67 66 65 65 65 63 63 62 62 63 62 61 61 60 61 63 62 62 62 62 62 61 61 60 60 60 63 62 63 64 64 63 63 64 64 63 62 62 62 64 64 64 65 65 65 66 66 66 66 66 65 61 63 64 65 65 66 66 66 66 64 64 63 62 61 61
67 67 68 68 69 70 71 71 70 70 69 68 67 66 66 65 67 69 69 69 67 66 65 64 63 63 63 63 64 63 61 60 61 61 61 61 62 62 62 60 60 61 61 59 60 60 62 63 62 61 61 62 63 63 63 62 62 63 65 65 65 65 65 65 66 66 66 66 66 61 61 62 62 64 66 66 66 66 64 64 64 63 63 63 62
66 68 68 68 68 69 71 71 70 70 69 68 67 67 65 65 66 69 69 69 67 65 64 62 62 62 63 63 65 65 62 60 60 61 61 63 62 61 60 60 62 62 62 61 60 60 61 62 61 62 62 63 63 62 62 62 62 63 65 66 65 66 66 66 66 66 66 63 59 59 60 61 63 64 66 66 66 65 64 64 63 62 61 61 60
67 67 68 68 69 69 70 71 70 70 69 68 67 66 65 65 66 68 69 67 65 64 62 61 62 63 63 66 67 66 64 61 60 61 61 62 59 60 61 63 61 59 60 60 60 59 59 61 61 60 61 62 62 62 62 62 62 63 64 66 66 66 66 66 66 65 65 58 61 60 60 61 62 64 66 66 66 65 65 64 63 63 61 60 60
67 67 67 68 69 69 70 70 71 69 69 68 67 66 66 66 65 67 69 67 64 63 62 62 62 62 63 67 68 67 65 62 60 61 62 60 59 60 63 60 60 61 60 60 60 61 60 60 61 62 62 62 62 62 62 62 62 63 64 66 66 66 66 66 65 66 60 59 59 60 61 60 62 63 66 65 65 65 64 61 62 61 61 61 60
66 67 67 68 69 69 70 70 71 70 69 68 67 66 66 66 66 65 68 66 64 63 62 62 62 62 63 67 67 64 65 64 62 60 59 61 62 61 62 61 60 58 59 61 62 61 60 60 60 61 61 62 62 62 61 62 63 64 64 66 66 66 65 65 65 63 57 58 59 60 64 67 60 62 64 65 65 65 64 64 64 62 62 60 59
67 67 68 68 70 69 70 71 71 70 69 68 67 67 66 66 66 65 64 64 63 62 63 61 62 63 62 63 63 63 65 65 63 62 60 61 63 62 61 60 61 61 62 61 60 60 59 60 60 60 62 61 61 61 62 62 62 63 64 66 66 66 66 65 66 57 58 58 58 59 60 66 61 63 65 64 65 64 63 62 62 62 62 62 61
67 68 68 68 70 69 70 70 71 70 69 68 68 67 67 65 65 65 64 64 63 63 63 61 62 63 63 63 63 64 67 66 64 63 62 62 62 61 60 61 60 61 62 59 59 61 60 60 60 60 60 61 61 61 61 62 63 62 62 64 65 65 65 65 60 61 61 59 60 61 61 59 60 61 66 65 65 63 63 63 63 63 62 61 60
66 67 68 69 70 68 69 70 70 70 70 69 68 68 67 66 65 65 65 64 63 63 63 61 62 63 64 62 63 64 65 65 65 65 64 63 62 62 60 61 61 60 59 59 59 60 59 60 60 60 60 60 60 61 61 61 62 62 61 61 62 63 63 63 60 62 61 62 60 62 60 61 63 66 66 65 64 64 63 64 64 62 61 61 60
65 67 68 69 69 70 68 69 69 70 70 70 69 69 67 67 66 66 65 64 63 64 62 62 62 63 63 63 63 64 63 62 67 67 65 64 62 63 62 61 61 60 59 60 61 60 60 60 60 60 60 60 60 60 60 61 62 62 60 60 61 60 60 62 62 61 62 61 61 60 61 60 61 65 65 65 65 64 65 65 64 63 62 61 61
64 67 68 68 69 69 69 68 69 69 69 69 69 69 68 67 66 66 65 64 63 64 64 63 63 63 63 63 63 64 63 63 64 67 67 64 63 63 63 63 63 62 60 60 62 59 60 59 60 60 60 60 60 60 60 61 62 62 61 60 61 61 60 55 57 59 59 60 60 60 60 60 63 66 65 65 65 65 65 65 65 64 62 61 60
65 66 68 67 69 69 70 70 67 67 69 68 69 69 69 68 67 67 66 65 64 64 64 64 63 63 64 64 64 62 63 63 64 66 67 66 64 63 62 62 62 62 62 61 61 60 59 59 60 60 61 61 60 61 61 61 62 62 62 61 60 60 60 60 57 58 57 59 59 59 59 59 64 65 64 64 65 65 65 65 65 65 63 61 61
64 67 67 67 68 68 69 69 69 66 67 67 67 68 68 68 68 68 66 66 67 65 65 65 64 64 65 64 66 66 66 65 66 67 65 64 65 66 66 63 62 62 62 62 61 61 61 61 59 59 61 61 61 61 61 62 62 63 63 62 60 60 59 59 56 57 56 59 60 58 58 58 62 64 63 63 64 65 65 66 65 65 64 62 61
65 66 66 66 67 67 67 69 69 70 70 68 66 67 67 68 68 67 67 67 67 67 67 67 66 67 66 65 64 66 66 67 68 67 66 66 65 65 65 65 64 62 61 62 61 61 61 61 62 61 61 61 62 61 62 61 63 64 62 61 60 59 58 58 57 56 57 60 59 60 57 63 63 64 62 62 62 63 65 65 65 65 65 63 62
64 65 66 66 66 66 66 67 68 69 68 69 69 69 66 67 67 66 67 67 67 66 68 67 67 67 66 65 65 65 65 66 67 66 66 66 64 64 64 65 63 62 61 62 61 61 61 61 61 61 61 62 62 62 61 65 64 63 62 60 58 57 56 57 57 57 57 57 57 58 58 62 64 64 61 61 61 62 63 65 65 66 65 65 63
64 64 65 66 66 65 66 66 67 67 68 68 68 68 66 65 65 66 65 66 67 67 67 66 66 66 64 64 63 64 64 64 65 65 64 65 65 62 63 64 64 63 63 63 62 61 61 61 61 61 61 62 62 62 65 64 63 62 61 60 58 56 59 56 58 57 56 56 57 56 61 62 64 62 62 61 61 62 62 64 65 65 66 65 64
64 63 64 64 65 66 66 66 66 67 67 68 68 68 68 65 65 64 65 65 65 66 66 64 63 62 63 61 63 64 61 61 65 61 63 65 62 61 63 64 64 64 64 63 64 64 62 61 61 61 62 63 64 64 63 63 62 61 60 58 56 58 57 58 57 56 57 56 58 57 62 62 63 62 61 61 62 62 62 63 64 65 65 65 65
63 63 64 63 64 66 66 66 67 67 67 67 66 67 68 66 67 68 68 66 65 64 67 67 67 66 62 64 63 61 60 61 62 65 64 66 64 58 58 62 64 64 64 64 64 63 62 62 61 61 65 65 63 63 63 61 60 61 59 56 58 57 57 57 57 56 57 57 57 58 61 61 62 61 61 61 62 62 62 63 63 64 65 65 65
62 62 62 62 64 64 66 66 67 66 67 66 66 66 66 66 66 66 66 64 64 66 65 66 66 66 65 63 61 61 60 61 60 64 64 63 66 59 58 59 61 63 63 64 65 64 63 63 65 65 64 63 64 62 61 62 62 58 57 60 58 58 58 57 57 56 56 57 57 60 60 61 61 61 61 60 61 62 62 62 62 63 64 65 65
61 61 61 62 62 64 65 66 67 67 67 66 66 65 65 65 65 65 65 64 64 65 64 65 66 66 66 64 62 63 62 60 63 65 64 64 64 58 58 59 60 60 60 62 64 64 63 63 63 62 63 63 61 60 60 62 61 60 60 60 58 58 59 57 56 56 56 57 57 60 60 61 61 61 61 60 61 61 61 62 62 63 63 64 65
62 62 61 61 61 62 64 65 66 66 67 66 66 65 65 65 64 64 63 63 63 63 62 64 64 66 65 64 64 63 64 61 61 61 61 59 60 61 64 63 63 63 60 62 61 63 63 63 62 62 61 60 60 60 60 61 60 60 59 59 59 58 57 58 56 55 56 57 58 59 59 60 61 62 61 61 61 61 61 62 62 62 63 63 64
62 62 62 62 62 62 63 64 64 65 66 66 66 65 65 64 64 63 63 63 64 63 62 62 62 64 64 65 65 64 63 62 61 60 60 58 58 58 59 60 61 62 62 61 60 61 61 61 61 60 60 59 60 60 59 60 59 59 58 58 58 58 57 56 57 56 55 55 57 58 59 59 60 62 62 61 61 61 61 61 62 62 62 63 63
61 61 62 62 62 63 63 63 63 64 64 64 64 64 63 63 63 63 64 63 63 63 62 62 61 61 63 64 64 64 64 62 61 61 60 60 58 58 57 58 59 59 60 59 60 60 59 58 58 59 58 58 58 59 58 58 58 57 57 57 57 57 57 57 57 57 57 55 55 57 59 59 60 61 62 62 62 62 62 62 62 62 62 63 63
62 61 62 62 62 63 64 64 63 63 64 64 63 63 64 64 64 63 64 63 63 63 62 62 62 61 62 61 62 62 62 63 62 61 60 60 59 60 60 59 59 59 59 58 58 58 58 57 57 57 56 56 56 56 56 56 55 56 55 56 57 57 57 57 57 58 58 58 57 57 57 58 59 60 61 62 62 62 62 61 62 62 62 62 62
61 61 62 62 62 63 63 64 64 63 63 63 63 63 63 63 63 63 63 62 63 63 63 63 63 62 62 62 62 61 60 60 60 60 59 60 60 60 59 59 59 60 60 59 58 58 58 58 58 57 56 56 55 56 56 56 56 57 57 57 57 57 57 57 57 57 58 57 58 57 57 58 58 59 60 61 61 62 62 62 61 61 61 62 62
61 61 62 62 62 62 63 63 64 64 64 64 64 63 63 63 63 63 63 63 63 63 64 63 63 62 62 62 62 62 60 59 59 58 59 59 60 61 60 59 58 59 60 60 59 59 59 58 58 58 58 58 57 57 57 57 56 57 57 57 58 57 57 57 57 57 57 57 57 58 56 57 58 58 59 60 61 61 61 62 63 62 61 62 62
61 62 62 62 63 62 63 63 63 64 64 64 64 63 63 63 63 63 63 63 63 63 63 63 63 62 62 62 62 62 61 60 59 59 58 58 59 59 59 58 58 58 59 59 60 60 59 58 58 57 57 57 58 58 57 57 57 57 58 58 58 58 58 58 57 56 56 56 57 57 58 56 57 58 59 61 61 61 61 61 62 62 63 63 62
61 62 62 62 62 62 62 62 62 63 64 64 64 64 63 63 63 62 62 62 63 63 62 62 62 62 62 62 62 62 62 61 61 61 60 59 59 59 60 60 59 59 59 59 60 59 59 58 58 59 58 58 58 58 58 57 58 57 58 58 58 58 58 58 57 56 55 56 56 57 57 58 56 57 58 59 61 61 61 61 61 62 63 63 63
61 61 62 63 62 62 62 62 62 63 63 63 63 63 64 63 63 63 62 63 62 63 62 62 62 62 63 63 62 62 62 62 61 61 61 60 60 60 59 60 60 60 61 61 61 60 59 58 59 59 59 59 59 58 59 59 58 58 58 58 58 58 58 58 57 56 56 57 56 57 57 58 58 56 56 57 59 60 61 62 62 62 62 62 63
60 61 61 62 62 62 63 63 63 63 63 63 63 63 63 63 63 63 62 62 62 62 62 62 62 62 62 63 63 62 62 62 62 62 61 61 61 61 60 60 60 60 61 61 60 60 59 58 58 58 56 57 57 57 58 58 58 58 58 58 58 58 58 57 57 57 57 57 57 57 57 57 57 58 59 56 57 58 60 61 62 62 62 62 62
60 60 61 61 61 62 62 62 63 63 63 63 63 63 63 63 63 62 62 62 62 62 62 62 62 62 62 62 62 62 62 62 62 61 61 61 61 60 60 60 60 60 60 60 60 60 59 58 58 57 56 56 57 57 57 57 57 57 57 57 57 58 57 57 57 57 57 57 57 57 58 58 58 58 59 58 56 56 58 60 61 62 62 62 62
59 60 61 60 60 60 62 62 63 63 64 63 63 63 63 63 63 62 62 62 61 62 62 61 60 61 61 62 62 62 62 62 62 62 61 61 60 60 60 60 61 60 60 60 60 59 59 59 58 58 57 57 57 57 57 57 57 57 57 58 58 57 57 57 57 57 57 56 57 57 57 58 58 58 56 57 57 57 57 58 60 60 61 62 62
59 59 59 60 60 60 60 61 61 63 63 63 64 64 63 63 62 62 62 62 62 62 62 61 61 61 60 61 62 62 62 62 62 62 61 61 61 61 60 61 61 60 60 60 60 59 59 59 58 58 58 57 57 57 57 57 57 57 57 58 58 57 57 57 57 57 58 57 57 57 57 58 58 54 57 57 57 56 56 56 57 58 59 60 61
59 59 59 59 59 60 61 61 61 61 62 63 63 63 63 63 63 63 62 62 62 62 61 62 61 61 61 61 61 62 61 62 62 62 61 61 61 61 61 61 61 60 60 60 60 59 59 59 58 59 58 58 57 57 57 57 58 58 57 57 57 57 57 57 57 55 55 56 56 57 57 57 57 57 57 57 57 57 57 56 55 56 56 56 58
59 58 59 59 59 60 60 61 61 61 62 62 63 63 63 62 63 63 63 62 62 62 62 61 62 61 61 62 62 61 61 62 62 62 61 61 61 61 61 61 61 60 60 60 60 59 59 59 59 58 58 58 58 58 57 58 58 58 57 57 57 57 57 57 56 56 56 56 56 56 58 57 57 57 57 57 57 57 57 57 57 57 57 55 57
58 58 58 59 59 59 60 60 60 59 61 61 62 62 62 61 61 62 62 62 62 62 62 62 62 61 61 61 61 61 61 61 62 62 61 61 61 61 61 61 61 60 60 60 59 59 59 59 59 59 58 58 58 58 58 57 57 57 56 56 56 57 56 56 56 56 56 56 57 56 56 56 56 56 56 57 56 56 56 57 55 56 56 56 55
56 56 57 58 58 58 59 59 60 60 59 60 61 61 61 61 61 60 61 61 62 62 62 62 62 61 61 61 61 61 62 62 61 61 61 60 61 61 61 61 61 60 60 60 60 60 59 59 59 58 58 58 58 57 57 57 56 55 56 56 56 56 55 55 55 56 56 56 56 55 55 55 55 56 56 56 56 56 56 56 56 56 55 56 55
50 53 55 56 58 58 58 59 60 59 59 59 60 60 61 60 60 60 61 61 61 61 61 61 61 62 62 62 62 61 62 62 61 61 61 61 61 60 61 61 61 60 60 60 60 58 59 59 59 58 58 57 57 58 58 56 55 54 55 55 55 55 55 55 55 55 56 55 56 55 55 54 55 55 55 54 55 55 55 55 55 55 56 56 55
47 50 53 55 57 57 58 58 59 59 59 59 59 60 61 61 61 61 61 61 62 62 62 62 62 61 62 62 62 62 62 61 61 61 61 61 61 61 61 61 60 60 60 59 59 59 59 59 59 58 57 57 57 58 58 56 55 56 56 54 53 52 54 53 54 53 53 54 54 54 54 55 54 55 54 54 54 54 55 55 55 55 56 56 56
47 46 48 51 53 55 56 57 58 59 59 59 59 60 60 61 62 61 62 61 61 62 63 62 62 62 61 62 62 62 62 61 61 61 61 61 61 61 61 61 60 60 60 59 59 59 59 59 59 58 58 57 56 56 57 57 56 56 54 54 53 52 51 52 51 53 51 51 53 53 53 53 53 54 54 54 53 53 54 55 56 56 56 56 56
48 48 47 46 48 51 54 56 57 58 58 58 59 59 60 61 61 62 62 62 62 61 62 61 61 61 61 61 61 62 62 61 61 61 61 61 61 61 61 61 60 60 60 60 59 59 59 59 59 58 57 57 57 57 56 56 56 56 55 54 53 52 51 52 53 53 54 53 52 51 52 52 53 53 53 53 53 54 54 55 56 56 57 56 56
48 49 49 47 46 48 51 54 56 57 57 58 59 59 59 59 59 59 59 59 58 59 59 59 59 60 61 61 62 62 62 61 61 61 61 61 61 61 61 61 60 60 60 60 60 59 59 59 59 58 58 58 57 57 57 56 56 56 56 56 55 53 53 54 53 51 52 53 53 53 53 54 54 54 53 52 53 54 54 55 55 55 56 57 56
49 50 49 48 47 48 49 51 53 55 57 57 59 58 59 58 58 59 59 59 58 59 59 60 60 61 61 61 62 63 62 62 61 61 61 61 61 61 61 61 60 60 60 60 59 59 59 59 59 58 58 58 57 56 56 57 55 56 56 56 56 56 56 54 53 53 51 53 54 53 54 55 54 53 53 53 54 54 54 55 55 56 56 56 56
49 50 50 49 49 48 49 49 50 52 55 58 59 59 58 58 59 59 59 59 58 58 59 59 60 60 61 61 62 62 62 62 62 61 61 61 61 61 61 61 60 60 60 60 59 59 59 60 59 59 58 58 57 56 56 57 55 55 55 55 55 56 56 56 56 54 53 51 52 54 54 54 54 53 53 53 53 54 54 55 55 56 55 55 55
49 50 50 50 51 51 50 49 48 49 51 56 57 59 58 58 59 59 59 58 59 59 59 60 60 60 60 61 61 61 62 62 62 62 61 61 61 61 61 61 60 60 59 60 60 60 59 59 59 58 58 58 57 57 57 56 56 56 55 54 55 55 55 55 55 56 53 52 52 52 52 53 54 54 53 54 53 54 54 54 55 55 55 55 56
49 50 49 50 51 51 50 49 48 48 48 53 56 58 59 57 58 59 59 59 58 58 59 58 59 60 60 60 60 60 61 61 61 62 61 61 61 61 61 61 60 60 59 60 60 60 59 59 59 59 58 58 58 57 57 57 57 57 56 55 54 55 55 55 55 55 54 54 52 52 52 52 51 52 53 53 54 54 54 55 55 55 56 55 55
49 49 51 51 51 51 50 49 48 48 48 50 54 55 58 58 57 58 59 59 59 59 58 58 58 59 59 59 60 60 60 61 61 61 61 61 61 61 61 61 60 60 59 60 59 59 59 59 59 59 59 58 58 57 57 57 57 57 57 56 55 55 54 53 53 53 53 52 52 52 52 52 52 52 53 54 54 54 54 55 55 55 55 55 55